Location: Flotzheim
(48.8375°N, 10.8136°E)
Time: 04:38:17
(UTC+00:00)

Cosmos 1092 Rocket - Pass Details

Date: 23 January 2021
Orbit: 954 x 995 km, 83.0° (Epoch: 26 February)

Event Time Altitude Azimuth Distance (km) Brightness Sun altitude
Rises 18:07:38 0° 190° (S) 3,650 7.2 -20.7°
Reaches altitude 10° 18:10:09 10° 191° (SSW) 2,701 6.5 -21.1°
Maximum altitude 18:16:20 81° 279° (W) 979 4.0 -22.1°
Drops below altitude 10° 18:22:31 10° 8° (N) 2,699 6.2 -23.1°
Sets 18:25:02 0° 9° (N) 3,646 6.9 -23.5°
